Dewpoint
66 69 73 73 74 74 74 74 74 75 74 75 75 75 75 75 75 75 75 74 75 75 75 75 75 75 74 75 75 75 76 75 75 75 75 75 75 75 75 74 75 72 75
66 68 73 73 74 73 74 73 74 75 74 73 74 73 73 74 75 74 74 74 75 75 75 75 75 75 75 75 75 75 75 76 75 75 75 75 75 74 75 75 75 73 74
65 68 71 74 73 73 74 74 73 73 73 73 72 73 72 74 74 74 74 75 75 75 75 75 75 75 75 74 74 74 74 75 75 74 75 70 72 74 74 75 74 74 74
66 66 69 74 74 73 73 73 74 73 73 73 72 70 73 74 74 74 75 75 75 75 75 75 74 74 74 75 75 73 72 73 72 74 72 67 69 74 74 74 74 74 74
66 68 70 73 74 73 73 73 73 73 72 72 74 73 74 74 74 74 75 75 75 76 76 75 73 73 73 72 70 69 70 71 72 72 70 68 69 73 74 74 74 74 74
68 68 70 73 73 72 72 72 73 73 74 72 73 73 74 74 74 74 75 75 75 74 74 74 74 74 74 73 71 70 71 72 74 68 68 70 69 72 73 72 71 71 72
69 67 69 73 74 73 73 73 73 73 73 73 73 74 74 74 74 74 74 75 75 74 74 75 75 74 74 73 72 72 73 73 71 67 68 70 71 74 74 73 72 72 71
68 66 68 71 72 72 72 73 73 73 73 73 73 73 74 74 75 74 74 75 74 74 74 74 74 73 72 72 73 73 74 74 69 67 68 70 74 74 71 71 73 73 72
65 67 68 67 69 69 70 72 74 73 73 74 73 72 74 72 74 75 75 74 74 74 74 73 73 72 71 72 73 74 74 74 72 67 66 71 76 73 70 71 71 70 69
64 66 68 67 68 68 68 72 74 74 73 74 72 71 73 75 75 75 76 75 73 73 73 72 72 72 72 73 74 76 75 75 71 67 69 69 74 72 70 69 69 69 72
63 66 65 66 67 71 70 70 73 73 72 72 74 74 74 69 72 72 74 74 74 73 72 72 73 74 74 74 75 76 74 71 69 66 67 75 75 71 69 70 71 71 72
65 65 62 63 65 68 67 72 72 71 70 73 72 75 74 72 72 69 72 73 73 73 73 74 75 74 72 69 68 74 71 67 66 66 69 75 74 71 70 70 71 71 70
64 62 63 67 68 70 71 72 71 72 72 74 74 74 74 71 68 67 71 70 72 74 70 72 71 70 70 69 68 67 67 67 64 64 70 74 73 72 72 71 72 71 71
64 64 65 67 70 72 71 67 67 67 69 71 73 74 75 70 68 68 69 71 70 69 71 71 70 70 70 69 65 64 63 63 63 65 70 73 73 72 72 73 73 73 73
58 60 63 69 71 71 71 65 66 65 69 72 74 73 72 71 71 68 71 73 72 71 70 67 71 71 70 69 66 65 63 64 63 65 66 74 73 74 73 74 74 74 74
60 62 65 68 71 72 72 72 70 69 71 71 72 71 70 71 70 73 72 72 71 74 67 73 74 73 71 66 66 66 65 64 66 66 66 70 74 74 75 75 75 75 75
62 66 69 69 70 72 73 72 71 71 69 70 68 71 72 73 71 77 71 71 72 66 73 73 73 72 68 63 67 65 66 66 65 67 67 66 70 75 75 76 76 76 76
63 67 67 65 67 70 71 71 69 70 68 68 69 71 73 74 75 77 72 71 71 75 69 72 72 68 68 64 66 67 66 65 66 66 66 67 69 67 74 76 76 76 76
62 66 67 67 67 68 72 70 71 70 71 69 68 69 74 73 73 77 71 69 74 76 70 70 70 70 69 67 64 66 64 65 66 59 66 69 73 70 71 75 76 76 76
63 66 67 65 70 72 70 72 71 68 69 71 70 69 74 74 74 77 73 71 77 74 71 68 70 74 72 70 70 64 65 67 67 66 65 68 70 70 69 73 74 74 76
63 65 68 70 71 71 69 69 70 67 70 68 69 72 75 74 74 76 75 76 76 72 72 72 73 73 71 73 71 67 66 63 65 66 69 66 68 66 69 72 71 72 74
64 66 69 72 72 72 70 72 71 71 70 71 71 74 72 73 75 73 76 72 76 72 75 74 76 74 72 73 69 70 66 63 66 68 67 65 66 67 68 72 72 72 73
65 67 69 72 73 72 73 72 73 75 70 72 73 72 72 74 74 75 76 76 76 76 74 76 75 74 72 69 72 69 67 65 65 68 68 67 62 67 67 70 69 73 73
64 67 70 72 73 72 75 72 74 71 69 71 69 69 71 74 74 73 75 76 77 77 77 75 72 74 76 72 70 70 72 70 67 66 69 69 69 67 66 68 67 72 71
64 65 69 71 74 73 74 75 72 71 70 72 69 73 73 74 75 73 76 76 76 76 76 75 76 76 76 74 72 71 71 72 71 67 64 65 67 67 68 65 69 71 72
64 65 69 72 73 74 73 73 74 71 71 74 73 72 72 72 72 74 74 76 77 76 76 75 76 76 76 76 76 74 71 69 67 68 66 67 64 66 64 63 69 68 73
Lifted_Index
-1 -2 -2 -3 -3 -3 -4 -4 -4 -4 -4 -4 -4 -4 -4 -4 -4 -4 -4 -4 -5 -5 -5 -5 -5 -5 -5 -6 -6 -6 -7 -6 -6 -6 -6 -6 -6 -6 -6 -6 -6 -7 -7
-1 -2 -2 -3 -3 -3 -3 -3 -3 -4 -4 -4 -4 -4 -4 -4 -4 -4 -4 -5 -5 -5 -5 -5 -5 -5 -5 -6 -6 -6 -6 -6 -6 -6 -6 -6 -6 -6 -6 -6 -6 -6 -7
-2 -2 -2 -3 -3 -3 -3 -3 -3 -3 -3 -3 -3 -3 -3 -4 -4 -4 -4 -5 -5 -5 -5 -5 -5 -5 -5 -6 -6 -6 -6 -6 -6 -6 -6 -5 -6 -6 -6 -6 -6 -6 -6
-2 -2 -2 -3 -3 -3 -3 -2 -3 -3 -3 -3 -3 -3 -3 -4 -4 -4 -5 -5 -5 -5 -5 -5 -5 -5 -5 -5 -5 -5 -5 -5 -5 -6 -5 -5 -5 -6 -6 -6 -6 -7 -6
-2 -2 -2 -3 -3 -3 -2 -2 -3 -3 -3 -3 -3 -3 -4 -4 -4 -5 -5 -5 -5 -5 -5 -5 -5 -5 -5 -5 -4 -4 -4 -4 -5 -5 -5 -4 -5 -6 -6 -6 -6 -6 -6
-2 -2 -2 -3 -3 -3 -2 -2 -3 -3 -3 -3 -3 -4 -4 -4 -5 -5 -5 -5 -5 -5 -5 -5 -5 -5 -5 -5 -5 -4 -4 -5 -5 -5 -4 -4 -4 -5 -6 -6 -5 -5 -5
-2 -1 -2 -2 -3 -2 -2 -2 -3 -3 -3 -3 -3 -4 -4 -4 -5 -5 -5 -5 -5 -5 -5 -5 -5 -5 -5 -6 -6 -5 -5 -5 -5 -5 -5 -5 -5 -6 -6 -6 -5 -5 -5
-1 -1 -1 -1 -2 -2 -2 -2 -3 -3 -3 -3 -3 -3 -4 -4 -5 -5 -5 -5 -5 -5 -5 -5 -5 -5 -5 -6 -6 -6 -6 -6 -5 -5 -5 -5 -6 -6 -6 -6 -6 -6 -5
-1 -1 -1 -0 -1 -1 -1 -2 -3 -3 -3 -3 -2 -2 -3 -4 -4 -5 -5 -5 -4 -5 -5 -5 -4 -4 -5 -5 -6 -6 -6 -6 -6 -5 -5 -5 -6 -6 -5 -5 -5 -5 -5
-1 -1 -1 -0 -0 -1 -1 -2 -3 -3 -3 -3 -2 -2 -3 -4 -4 -4 -5 -5 -4 -4 -4 -4 -4 -4 -4 -5 -6 -6 -6 -7 -6 -5 -5 -5 -6 -5 -4 -4 -4 -4 -5
-1 -1 -0 -0 -0 -1 -1 -1 -2 -2 -2 -3 -3 -3 -3 -3 -3 -4 -4 -4 -4 -4 -4 -4 -4 -4 -4 -4 -5 -6 -6 -6 -6 -5 -5 -5 -5 -5 -4 -4 -4 -4 -5
-0 -0 0 0 -0 -0 -0 -1 -1 -1 -2 -2 -3 -3 -3 -3 -2 -2 -3 -3 -4 -4 -3 -3 -4 -4 -4 -4 -4 -5 -5 -5 -5 -4 -4 -5 -5 -4 -4 -4 -4 -4 -4
-0 -0 0 0 -0 -0 0 0 0 0 -1 -2 -3 -3 -3 -2 -1 -1 -2 -3 -3 -3 -3 -3 -4 -4 -4 -4 -4 -4 -4 -4 -4 -3 -4 -4 -4 -4 -4 -4 -5 -5 -5
0 0 0 -0 -1 -1 1 2 2 1 0 -2 -3 -3 -3 -2 -1 -1 -2 -2 -3 -3 -3 -3 -3 -4 -4 -4 -3 -3 -3 -3 -3 -3 -3 -3 -3 -4 -4 -5 -5 -5 -5
1 0 -0 -1 -1 -1 -0 1 2 1 -0 -2 -3 -3 -3 -2 -2 -2 -2 -2 -3 -3 -3 -3 -4 -4 -4 -3 -2 -2 -3 -3 -2 -2 -2 -2 -3 -3 -4 -5 -5 -5 -5
0 -1 -1 -2 -2 -2 -2 -1 -0 -1 -2 -2 -3 -3 -2 -2 -2 -3 -3 -3 -3 -3 -3 -3 -4 -4 -3 -3 -2 -2 -2 -2 -2 -2 -2 -2 -2 -3 -3 -4 -5 -5 -5
-1 -2 -3 -3 -3 -3 -3 -3 -2 -2 -2 -2 -2 -2 -2 -2 -3 -3 -3 -3 -3 -3 -3 -3 -4 -4 -3 -2 -2 -2 -2 -2 -2 -2 -2 -3 -3 -3 -3 -4 -4 -5 -5
-2 -2 -3 -3 -3 -4 -4 -3 -3 -3 -2 -2 -2 -2 -2 -3 -3 -4 -3 -3 -3 -4 -3 -3 -3 -3 -3 -1 -1 -2 -2 -2 -2 -2 -3 -3 -3 -3 -3 -4 -4 -5 -5
-2 -2 -3 -3 -3 -4 -4 -4 -3 -3 -3 -2 -2 -3 -3 -3 -4 -4 -3 -3 -4 -4 -3 -2 -3 -4 -3 -2 -1 -2 -2 -2 -2 -2 -3 -3 -3 -4 -4 -4 -4 -4 -5
-2 -3 -3 -3 -4 -4 -4 -4 -4 -3 -3 -3 -2 -3 -3 -4 -4 -4 -4 -4 -4 -4 -3 -2 -3 -4 -5 -4 -2 -2 -1 -1 -1 -2 -2 -3 -3 -3 -3 -4 -4 -4 -5
-2 -3 -3 -4 -4 -5 -4 -4 -4 -3 -3 -3 -3 -4 -4 -4 -4 -4 -4 -5 -5 -4 -4 -4 -4 -5 -5 -5 -3 -2 -1 -1 -1 -1 -2 -2 -3 -3 -3 -3 -4 -4 -4
-2 -3 -4 -5 -5 -5 -4 -4 -4 -4 -4 -4 -4 -4 -4 -4 -4 -4 -5 -5 -5 -4 -4 -5 -5 -5 -5 -5 -3 -2 -2 -1 -0 -1 -1 -2 -2 -2 -2 -3 -4 -4 -4
-3 -3 -4 -5 -5 -5 -5 -5 -4 -4 -4 -4 -4 -4 -4 -4 -4 -4 -5 -5 -5 -5 -5 -5 -5 -5 -5 -5 -4 -3 -3 -2 -1 -1 -2 -2 -2 -2 -3 -3 -3 -4 -4
-3 -4 -4 -5 -5 -5 -5 -5 -5 -4 -4 -4 -4 -4 -4 -5 -5 -5 -5 -5 -5 -5 -5 -5 -5 -5 -5 -5 -4 -4 -4 -3 -3 -2 -2 -2 -2 -2 -2 -2 -3 -4 -4
-4 -4 -5 -5 -6 -6 -5 -5 -5 -4 -4 -4 -4 -4 -5 -5 -5 -5 -5 -6 -6 -5 -5 -5 -5 -5 -5 -5 -5 -4 -4 -4 -3 -2 -2 -2 -2 -2 -2 -2 -2 -4 -4
-4 -4 -5 -6 -6 -6 -6 -5 -5 -4 -5 -5 -5 -5 -5 -5 -5 -5 -5 -6 -6 -5 -5 -5 -5 -5 -6 -6 -5 -5 -4 -4 -3 -2 -2 -2 -2 -2 -1 -1 -2 -3 -4